Location: Barrio de Canyet
(41.4665°N, 2.2381°E)
Time: 08:41:52
(UTC+00:00)

Cosmos 2360 Rocket - Pass Details

Date: 09 April 2020
Orbit: 834 x 845 km, 71.0° (Epoch: 03 June)

Event Time Altitude Azimuth Distance (km) Brightness Sun altitude
Rises 23:14:18 0° 342° (NNW) 3,392 6.2 -39.7°
Reaches altitude 10° 23:16:56 10° 351° (N) 2,455 5.3 -39.8°
Enters shadow 23:19:15 23° 7° (N) 1,731 4.3 -39.9°
